| time (UTC) | temp F | wind direction | speed MPH | gust MPH | rain 1hr in | rain 24hr in | rain mn in | humidity % | barometer mb |
| 20260504050514 | 51 | 105 | 1.0 | 2.0 | 0.00 | 0.00 | 0.00 | 83 | 1018.6 |
| 20260504050011 | 51 | 107 | 1.0 | 2.0 | 0.00 | 0.00 | 0.00 | 83 | 1018.8 |
| 20260504045508 | 52 | 98 | 0.0 | 2.0 | 0.00 | 0.00 | 0.00 | 83 | 1018.8 |
| 20260504045003 | 52 | 111 | 1.0 | 1.0 | 0.00 | 0.00 | 0.00 | 83 | 1018.9 |
| 20260504044501 | 52 | 119 | 1.0 | 2.0 | 0.00 | 0.00 | 0.00 | 83 | 1018.7 |
| 20260504043958 | 52 | 113 | 0.0 | 2.0 | 0.00 | 0.00 | 0.00 | 82 | 1019.0 |
| 20260504043455 | 52 | 125 | 0.0 | 2.0 | 0.00 | 0.00 | 0.00 | 82 | 1019.0 |
| 20260504042952 | 52 | 108 | 1.0 | 2.0 | 0.00 | 0.00 | 0.00 | 82 | 1019.0 |
| 20260504042449 | 52 | 130 | 1.0 | 2.0 | 0.00 | 0.00 | 0.00 | 82 | 1019.2 |
| 20260504041946 | 52 | 110 | 1.0 | 2.0 | 0.00 | 0.00 | 0.00 | 81 | 1019.4 |
| 20260504041442 | 52 | 72 | 0.0 | 1.0 | 0.00 | 0.00 | 0.00 | 81 | 1019.2 |
| 20260504040937 | 52 | 129 | 0.0 | 1.0 | 0.00 | 0.00 | 0.00 | 81 | 1019.2 |
| 20260504040436 | 52 | 116 | 1.0 | 2.0 | 0.00 | 0.00 | 0.00 | 81 | 1019.0 |
| 20260504035931 | 53 | 123 | 1.0 | 2.0 | 0.00 | 0.00 | 0.00 | 80 | 1019.1 |
| 20260504035429 | 53 | 87 | 1.0 | 2.0 | 0.00 | 0.00 | 0.00 | 80 | 1019.1 |
| 20260504034925 | 53 | 108 | 1.0 | 2.0 | 0.00 | 0.00 | 0.00 | 79 | 1019.2 |
| 20260504034423 | 53 | 128 | 0.0 | 2.0 | 0.00 | 0.00 | 0.00 | 79 | 1019.5 |
| 20260504033920 | 53 | 92 | 1.0 | 2.0 | 0.00 | 0.00 | 0.00 | 79 | 1019.4 |
| 20260504033418 | 53 | 115 | 1.0 | 2.0 | 0.00 | 0.00 | 0.00 | 79 | 1019.3 |
| 20260504032914 | 54 | 109 | 1.0 | 2.0 | 0.00 | 0.00 | 0.00 | 79 | 1019.4 |
| 20260504032411 | 54 | 103 | 1.0 | 2.0 | 0.00 | 0.00 | 0.00 | 78 | 1019.4 |
| 20260504031908 | 54 | 115 | 1.0 | 2.0 | 0.00 | 0.00 | 0.00 | 78 | 1019.3 |
| 20260504031405 | 54 | 111 | 1.0 | 2.0 | 0.00 | 0.00 | 0.00 | 78 | 1019.4 |
| 20260504030902 | 54 | 59 | 1.0 | 2.0 | 0.00 | 0.00 | 0.00 | 78 | 1019.2 |
| 20260504030359 | 54 | 120 | 0.0 | 1.0 | 0.00 | 0.00 | 0.00 | 77 | 1019.4 |
| 20260504025854 | 54 | 113 | 0.0 | 2.0 | 0.00 | 0.00 | 0.00 | 77 | 1019.3 |
| 20260504025352 | 54 | 113 | 1.0 | 2.0 | 0.00 | 0.00 | 0.00 | 77 | 1019.3 |
| 20260504024848 | 54 | 118 | 1.0 | 2.0 | 0.00 | 0.00 | 0.00 | 76 | 1019.3 |
| 20260504024345 | 54 | 121 | 1.0 | 2.0 | 0.00 | 0.00 | 0.00 | 76 | 1019.2 |
| 20260504023842 | 55 | 116 | 2.0 | 2.0 | 0.00 | 0.00 | 0.00 | 75 | 1019.2 |
| 20260504023339 | 55 | 112 | 1.0 | 2.0 | 0.00 | 0.00 | 0.00 | 74 | 1019.3 |
| 20260504022834 | 55 | 113 | 1.0 | 2.0 | 0.00 | 0.00 | 0.00 | 73 | 1019.2 |
| 20260504022331 | 56 | 125 | 2.0 | 3.0 | 0.00 | 0.00 | 0.00 | 73 | 1019.1 |
| 20260504021828 | 56 | 116 | 1.0 | 2.0 | 0.00 | 0.00 | 0.00 | 72 | 1019.1 |
| 20260504021325 | 56 | 106 | 0.0 | 1.0 | 0.00 | 0.00 | 0.00 | 72 | 1019.2 |
| 20260504020822 | 57 | 151 | 1.0 | 2.0 | 0.00 | 0.00 | 0.00 | 70 | 1019.0 |
| 20260504020319 | 57 | 114 | 1.0 | 2.0 | 0.00 | 0.00 | 0.00 | 70 | 1018.9 |
| 20260504015815 | 57 | 115 | 1.0 | 2.0 | 0.00 | 0.00 | 0.00 | 70 | 1018.9 |
| 20260504015311 | 57 | 116 | 1.0 | 1.0 | 0.00 | 0.00 | 0.00 | 70 | 1018.9 |
| 20260504014808 | 57 | 136 | 1.0 | 2.0 | 0.00 | 0.00 | 0.00 | 69 | 1018.8 |
| 20260504014304 | 58 | 147 | 1.0 | 2.0 | 0.00 | 0.00 | 0.00 | 68 | 1018.8 |
| 20260504013802 | 59 | 136 | 2.0 | 2.0 | 0.00 | 0.00 | 0.00 | 66 | 1018.8 |
| 20260504013259 | 59 | 89 | 0.0 | 1.0 | 0.00 | 0.00 | 0.00 | 65 | 1018.8 |
| 20260504012755 | 59 | 104 | 0.0 | 1.0 | 0.00 | 0.00 | 0.00 | 65 | 1018.6 |
| 20260504012253 | 59 | 111 | 1.0 | 2.0 | 0.00 | 0.00 | 0.00 | 64 | 1018.4 |
| 20260504011750 | 59 | 116 | 1.0 | 2.0 | 0.00 | 0.00 | 0.00 | 63 | 1018.3 |
| 20260504011247 | 60 | 116 | 1.0 | 2.0 | 0.00 | 0.00 | 0.00 | 61 | 1018.5 |
| 20260504010743 | 60 | 115 | 0.0 | 2.0 | 0.00 | 0.00 | 0.00 | 60 | 1018.6 |
| 20260504010238 | 61 | 113 | 1.0 | 2.0 | 0.00 | 0.00 | 0.00 | 59 | 1018.6 |
| 20260504005736 | 61 | 126 | 1.0 | 2.0 | 0.00 | 0.00 | 0.00 | 58 | 1018.6 |
| 20260504005233 | 61 | 108 | 1.0 | 2.0 | 0.00 | 0.00 | 0.00 | 57 | 1018.5 |
| 20260504004730 | 62 | 126 | 1.0 | 2.0 | 0.00 | 0.00 | 0.00 | 56 | 1018.4 |
| 20260504004227 | 62 | 116 | 1.0 | 2.0 | 0.00 | 0.00 | 0.00 | 55 | 1018.3 |
| 20260504003724 | 63 | 120 | 1.0 | 2.0 | 0.00 | 0.00 | 0.00 | 53 | 1018.2 |
| 20260504003221 | 64 | 126 | 1.0 | 2.0 | 0.00 | 0.00 | 0.00 | 52 | 1018.4 |
| 20260504002717 | 65 | 128 | 1.0 | 2.0 | 0.00 | 0.00 | 0.00 | 51 | 1018.3 |
| 20260504002214 | 66 | 124 | 0.0 | 1.0 | 0.00 | 0.00 | 0.00 | 49 | 1018.2 |
| 20260504001712 | 66 | 124 | 0.0 | 1.0 | 0.00 | 0.00 | 0.00 | 48 | 1018.4 |
| 20260504001209 | 66 | 142 | 0.0 | 1.0 | 0.00 | 0.00 | 0.00 | 48 | 1018.4 |
| 20260504000705 | 66 | 93 | 0.0 | 1.0 | 0.00 | 0.00 | 0.00 | 47 | 1018.3 |
| 20260504000204 | 67 | 113 | 0.0 | 1.0 | 0.00 | 0.00 | 0.00 | 47 | 1018.0 |
| 20260503235701 | 67 | 124 | 1.0 | 2.0 | 0.00 | 0.00 | 0.00 | 46 | 1018.1 |
| 20260503235157 | 68 | 142 | 1.0 | 2.0 | 0.00 | 0.00 | 0.00 | 45 | 1018.1 |
| 20260503234655 | 68 | 142 | 0.0 | 1.0 | 0.00 | 0.00 | 0.00 | 45 | 1018.2 |
| 20260503234153 | 69 | 309 | 0.0 | 1.0 | 0.00 | 0.00 | 0.00 | 44 | 1018.1 |
| 20260503233649 | 69 | 236 | 1.0 | 2.0 | 0.00 | 0.00 | 0.00 | 44 | 1018.1 |
| 20260503233145 | 69 | 343 | 0.0 | 4.0 | 0.00 | 0.00 | 0.00 | 43 | 1018.1 |
| 20260503232642 | 69 | 19 | 0.0 | 0.0 | 0.00 | 0.00 | 0.00 | 43 | 1018.0 |
| 20260503232140 | 69 | 255 | 1.0 | 2.0 | 0.00 | 0.00 | 0.00 | 43 | 1018.0 |
| 20260503231638 | 69 | 351 | 0.0 | 2.0 | 0.00 | 0.00 | 0.00 | 42 | 1018.0 |
| 20260503231134 | 69 | 29 | 2.0 | 3.0 | 0.00 | 0.00 | 0.00 | 43 | 1018.0 |
| 20260503230631 | 70 | 79 | 2.0 | 2.0 | 0.00 | 0.00 | 0.00 | 41 | 1018.1 |
| 20260503230128 | 70 | 31 | 0.0 | 3.0 | 0.00 | 0.00 | 0.00 | 42 | 1018.2 |
| 20260503225626 | 70 | 32 | 0.0 | 2.0 | 0.00 | 0.00 | 0.00 | 41 | 1018.1 |
| 20260503225125 | 70 | 303 | 1.0 | 5.0 | 0.00 | 0.00 | 0.00 | 41 | 1018.4 |
| 20260503224623 | 70 | 0 | 0.0 | 3.0 | 0.00 | 0.00 | 0.00 | 41 | 1018.3 |
| 20260503224121 | 70 | 24 | 2.0 | 3.0 | 0.00 | 0.00 | 0.00 | 41 | 1018.2 |
| 20260503223618 | 70 | 32 | 0.0 | 2.0 | 0.00 | 0.00 | 0.00 | 40 | 1018.3 |
| 20260503223114 | 71 | 358 | 1.0 | 5.0 | 0.00 | 0.00 | 0.00 | 40 | 1018.3 |
| 20260503222612 | 71 | 23 | 0.0 | 3.0 | 0.00 | 0.00 | 0.00 | 40 | 1018.4 |
| 20260503222109 | 71 | 265 | 1.0 | 5.0 | 0.00 | 0.00 | 0.00 | 39 | 1018.4 |
| 20260503221608 | 71 | 217 | 3.0 | 6.0 | 0.00 | 0.00 | 0.00 | 40 | 1018.4 |
| 20260503221105 | 71 | 207 | 2.0 | 4.0 | 0.00 | 0.00 | 0.00 | 40 | 1018.4 |
| 20260503220601 | 71 | 257 | 0.0 | 4.0 | 0.00 | 0.00 | 0.00 | 40 | 1018.4 |
| 20260503220058 | 71 | 55 | 1.0 | 2.0 | 0.00 | 0.00 | 0.00 | 41 | 1018.6 |
| 20260503215555 | 71 | 3 | 1.0 | 7.0 | 0.00 | 0.00 | 0.00 | 40 | 1018.6 |
| 20260503215052 | 71 | 251 | 3.0 | 7.0 | 0.00 | 0.00 | 0.00 | 40 | 1018.6 |
| 20260503214550 | 71 | 187 | 0.0 | 3.0 | 0.00 | 0.00 | 0.00 | 40 | 1018.5 |
| 20260503214046 | 71 | 60 | 2.0 | 5.0 | 0.00 | 0.00 | 0.00 | 40 | 1018.7 |
| 20260503213545 | 71 | 162 | 0.0 | 3.0 | 0.00 | 0.00 | 0.00 | 39 | 1018.7 |
| 20260503213041 | 71 | 242 | 1.0 | 6.0 | 0.00 | 0.00 | 0.00 | 40 | 1018.6 |
| 20260503212539 | 71 | 78 | 0.0 | 3.0 | 0.00 | 0.00 | 0.00 | 40 | 1018.9 |
| 20260503212036 | 71 | 48 | 3.0 | 4.0 | 0.00 | 0.00 | 0.00 | 40 | 1018.9 |
| 20260503211533 | 71 | 64 | 3.0 | 5.0 | 0.00 | 0.00 | 0.00 | 41 | 1018.8 |
| 20260503211028 | 71 | 44 | 3.0 | 5.0 | 0.00 | 0.00 | 0.00 | 41 | 1019.0 |
| 20260503210525 | 71 | 45 | 3.0 | 8.0 | 0.00 | 0.00 | 0.00 | 40 | 1019.0 |
| 20260503210021 | 71 | 39 | 1.0 | 4.0 | 0.00 | 0.00 | 0.00 | 39 | 1019.1 |
| 20260503205518 | 71 | 40 | 1.0 | 3.0 | 0.00 | 0.00 | 0.00 | 39 | 1019.1 |
| 20260503205014 | 70 | 258 | 0.0 | 5.0 | 0.00 | 0.00 | 0.00 | 39 | 1019.3 |
| 20260503204512 | 71 | 218 | 2.0 | 4.0 | 0.00 | 0.00 | 0.00 | 38 | 1019.3 |
| 20260503204008 | 71 | 218 | 3.0 | 6.0 | 0.00 | 0.00 | 0.00 | 39 | 1019.4 |
| 20260503203506 | 70 | 150 | 0.0 | 7.0 | 0.00 | 0.00 | 0.00 | 38 | 1019.4 |
| 20260503203003 | 71 | 347 | 2.0 | 3.0 | 0.00 | 0.00 | 0.00 | 38 | 1019.4 |
| 20260503202500 | 71 | 31 | 4.0 | 6.0 | 0.00 | 0.00 | 0.00 | 37 | 1019.6 |
| 20260503201959 | 71 | 335 | 3.0 | 8.0 | 0.00 | 0.00 | 0.00 | 40 | 1019.7 |
| 20260503201456 | 71 | 48 | 4.0 | 8.0 | 0.00 | 0.00 | 0.00 | 40 | 1019.8 |
| 20260503200953 | 71 | 191 | 2.0 | 9.0 | 0.00 | 0.00 | 0.00 | 41 | 1020.1 |
| 20260503200449 | 71 | 34 | 2.0 | 6.0 | 0.00 | 0.00 | 0.00 | 41 | 1019.9 |
| 20260503195946 | 71 | 271 | 3.0 | 6.0 | 0.00 | 0.00 | 0.00 | 40 | 1020.0 |
| 20260503195443 | 71 | 271 | 2.0 | 7.0 | 0.00 | 0.00 | 0.00 | 41 | 1020.2 |
| 20260503194940 | 70 | 53 | 0.0 | 4.0 | 0.00 | 0.00 | 0.00 | 43 | 1020.4 |
| 20260503194437 | 70 | 62 | 0.0 | 2.0 | 0.00 | 0.00 | 0.00 | 39 | 1020.4 |
| 20260503193932 | 71 | 62 | 2.0 | 7.0 | 0.00 | 0.00 | 0.00 | 39 | 1020.5 |
| 20260503193428 | 70 | 55 | 2.0 | 4.0 | 0.00 | 0.00 | 0.00 | 41 | 1020.7 |
| 20260503192923 | 70 | 263 | 2.0 | 11.0 | 0.00 | 0.00 | 0.00 | 41 | 1020.7 |
| 20260503192420 | 70 | 37 | 4.0 | 17.0 | 0.00 | 0.00 | 0.00 | 38 | 1020.7 |
| 20260503191916 | 70 | 210 | 2.0 | 10.0 | 0.00 | 0.00 | 0.00 | 37 | 1020.8 |
| 20260503191414 | 70 | 262 | 3.0 | 8.0 | 0.00 | 0.00 | 0.00 | 39 | 1020.7 |
| 20260503190910 | 70 | 75 | 0.0 | 10.0 | 0.00 | 0.00 | 0.00 | 40 | 1021.1 |
| 20260503190408 | 70 | 5 | 4.0 | 10.0 | 0.00 | 0.00 | 0.00 | 38 | 1021.0 |
| 20260503185904 | 70 | 32 | 3.0 | 6.0 | 0.00 | 0.00 | 0.00 | 40 | 1021.1 |
| 20260503185401 | 70 | 14 | 1.0 | 10.0 | 0.00 | 0.00 | 0.00 | 41 | 1021.2 |
| 20260503184900 | 70 | 340 | 3.0 | 9.0 | 0.00 | 0.00 | 0.00 | 40 | 1021.3 |
| 20260503184356 | 70 | 288 | 2.0 | 4.0 | 0.00 | 0.00 | 0.00 | 42 | 1021.2 |
| 20260503183852 | 70 | 50 | 1.0 | 7.0 | 0.00 | 0.00 | 0.00 | 41 | 1021.5 |
| 20260503183350 | 70 | 56 | 3.0 | 11.0 | 0.00 | 0.00 | 0.00 | 42 | 1021.5 |
| 20260503182847 | 69 | 30 | 4.0 | 5.0 | 0.00 | 0.00 | 0.00 | 42 | 1021.5 |
| 20260503182346 | 69 | 249 | 5.0 | 9.0 | 0.00 | 0.00 | 0.00 | 42 | 1021.6 |
| 20260503181842 | 69 | 195 | 4.0 | 6.0 | 0.00 | 0.00 | 0.00 | 42 | 1021.5 |
| 20260503181339 | 69 | 335 | 3.0 | 10.0 | 0.00 | 0.00 | 0.00 | 42 | 1021.7 |
| 20260503180836 | 69 | 306 | 3.0 | 9.0 | 0.00 | 0.00 | 0.00 | 42 | 1021.8 |
| 20260503180334 | 68 | 28 | 3.0 | 7.0 | 0.00 | 0.00 | 0.00 | 40 | 1021.9 |
| 20260503175830 | 68 | 45 | 2.0 | 5.0 | 0.00 | 0.00 | 0.00 | 42 | 1022.1 |
| 20260503175328 | 68 | 229 | 3.0 | 5.0 | 0.00 | 0.00 | 0.00 | 42 | 1022.1 |
| 20260503174823 | 68 | 251 | 5.0 | 8.0 | 0.00 | 0.00 | 0.00 | 42 | 1022.1 |
| 20260503174322 | 68 | 64 | 1.0 | 5.0 | 0.00 | 0.00 | 0.00 | 44 | 1022.3 |
| 20260503173817 | 68 | 222 | 3.0 | 7.0 | 0.00 | 0.00 | 0.00 | 44 | 1022.4 |
| 20260503173314 | 67 | 38 | 3.0 | 5.0 | 0.00 | 0.00 | 0.00 | 45 | 1022.1 |
| 20260503172810 | 67 | 116 | 1.0 | 7.0 | 0.00 | 0.00 | 0.00 | 43 | 1022.4 |
| 20260503172308 | 67 | 211 | 4.0 | 8.0 | 0.00 | 0.00 | 0.00 | 44 | 1022.5 |
| 20260503171804 | 66 | 209 | 2.0 | 8.0 | 0.00 | 0.00 | 0.00 | 44 | 1022.4 |
| 20260503171301 | 67 | 43 | 4.0 | 6.0 | 0.00 | 0.00 | 0.00 | 45 | 1022.6 |
| 20260503170758 | 66 | 88 | 2.0 | 9.0 | 0.00 | 0.00 | 0.00 | 44 | 1022.7 |
| 20260503170254 | 66 | 335 | 3.0 | 8.0 | 0.00 | 0.00 | 0.00 | 45 | 1022.8 |
| 20260503160217 | 64 | 88 | 1.0 | 3.0 | 0.00 | 0.00 | 0.00 | 51 | 1023.1 |
| 20260503150647 | 61 | 72 | 1.0 | 3.0 | 0.00 | 0.00 | 0.00 | 58 | 1023.1 |
| 20260503150143 | 61 | 95 | 1.0 | 3.0 | 0.00 | 0.00 | 0.00 | 60 | 1023.0 |
| 20260503140107 | 56 | 48 | 0.0 | 3.0 | 0.00 | 0.00 | 0.00 | 79 | 1022.6 |
| 20260503131037 | 49 | 18 | 0.0 | 2.0 | 0.00 | 0.00 | 0.00 | 88 | 1022.6 |
| 20260503130534 | 49 | 56 | 1.0 | 2.0 | 0.00 | 0.00 | 0.00 | 89 | 1022.6 |
| 20260503110424 | 44 | 89 | 0.0 | 2.0 | 0.00 | 0.00 | 0.00 | 88 | 1021.6 |
| 20260503090310 | 46 | 109 | 2.0 | 2.0 | 0.00 | 0.00 | 0.00 | 86 | 1020.5 |
| 20260503081237 | 47 | 75 | 0.0 | 1.0 | 0.00 | 0.00 | 0.00 | 83 | 1020.5 |
| 20260503080732 | 47 | 58 | 1.0 | 1.0 | 0.00 | 0.00 | 0.00 | 83 | 1020.2 |
| 20260503080230 | 47 | 126 | 2.0 | 2.0 | 0.00 | 0.00 | 0.00 | 83 | 1020.1 |
| 20260503072707 | 48 | 31 | 1.0 | 2.0 | 0.00 | 0.00 | 0.00 | 82 | 1020.0 |
| 20260503072203 | 49 | 55 | 0.0 | 0.0 | 0.00 | 0.00 | 0.00 | 82 | 1020.0 |
| 20260503071700 | 49 | 58 | 0.0 | 1.0 | 0.00 | 0.00 | 0.00 | 83 | 1019.9 |
| 20260503071157 | 49 | 332 | 0.0 | 2.0 | 0.00 | 0.00 | 0.00 | 83 | 1019.8 |
| 20260503070653 | 49 | 82 | 0.0 | 2.0 | 0.00 | 0.00 | 0.00 | 83 | 1019.7 |
| 20260503070152 | 49 | 307 | 0.0 | 2.0 | 0.00 | 0.00 | 0.00 | 83 | 1019.8 |